Temp
14 14 14 14 14 14 13 13 13 13 13 13 13 13 14 14 14 14 14 14 13 13 13 13 13 13 13 14 14 14 13 13 13 13 13 14 13 13 13 13 13 14 14 14 13 13 13 13 13 13 13 13 13 13 13 13 13 12 12 12 12 12 12 12 12 12 13 13 13
14 14 14 14 13 13 13 13 13 13 13 13 13 13 13 13 12 12 12 12 13 13 13 13 13 13 13 13 13 13 13 13 13 13 13 13 13 13 13 13 13 13 13 13 13 13 13 13 13 13 13 13 12 12 12 12 12 12 12 12 11 11 11 12 12 12 12 12 12
13 13 13 13 13 12 12 12 12 12 12 12 13 13 12 12 12 12 12 12 12 13 13 13 13 13 13 13 13 13 13 13 13 13 13 13 13 13 13 13 13 13 13 13 13 13 12 12 12 12 13 13 13 12 12 12 12 12 11 11 11 11 11 11 11 11 12 12 12
12 12 12 12 12 12 11 11 11 12 12 12 12 12 12 12 11 11 11 11 12 12 12 12 12 12 13 13 13 13 13 13 13 13 13 13 13 13 13 13 13 13 13 13 12 12 12 12 12 12 12 12 12 12 11 11 11 11 11 11 11 11 11 11 11 11 11 11 11
11 11 11 11 11 11 11 11 11 11 11 11 11 11 10 10 10 10 11 11 11 11 12 12 12 13 13 13 13 13 13 13 13 13 13 13 13 13 13 13 13 13 13 12 12 12 12 12 12 12 12 12 12 11 11 11 11 11 11 11 11 11 11 11 11 11 11 10 11
9 9 10 10 10 10 10 10 10 10 9 9 9 9 9 10 10 10 11 11 11 11 12 12 12 13 13 13 13 13 13 12 12 12 12 12 12 12 12 12 12 12 12 12 12 12 12 11 11 11 12 12 11 11 11 11 10 10 10 10 11 11 11 11 11 10 10 10 10
8 9 9 9 9 9 9 9 9 9 9 9 9 9 10 10 11 11 11 11 11 12 12 12 12 12 12 12 12 12 12 12 12 12 12 12 12 12 12 12 12 12 12 12 12 12 11 11 11 11 11 11 10 10 10 10 10 10 10 10 10 10 10 10 10 10 10 10 10
8 8 8 8 9 9 9 9 9 9 10 10 10 10 10 11 11 11 11 11 11 11 11 12 12 12 12 12 12 12 12 12 12 12 12 11 11 11 11 11 11 11 11 11 11 11 11 11 11 11 11 10 9 10 10 10 10 10 10 10 10 10 10 10 10 10 10 10 9
8 8 9 9 9 9 10 10 10 10 10 10 10 10 10 11 11 11 11 11 11 11 11 11 11 12 12 12 12 12 12 12 12 12 11 11 11 11 11 11 11 11 11 11 11 11 11 11 11 11 10 10 9 9 9 10 10 10 10 10 10 10 10 10 10 10 10 9 9
8 8 9 9 9 10 10 10 11 11 11 10 10 10 10 11 11 11 11 10 11 11 11 11 11 12 12 12 12 11 11 11 11 11 11 11 11 11 11 11 11 11 11 11 11 10 10 10 10 10 9 9 9 9 9 8 8 8 9 9 9 10 10 10 10 10 10 10 9
8 9 9 9 9 10 10 11 11 10 10 10 10 10 10 10 10 10 10 10 11 11 11 11 11 11 11 11 11 11 10 10 10 10 10 10 10 10 10 10 10 10 10 10 10 9 9 9 9 9 9 8 8 8 8 8 8 7 7 8 8 8 9 9 9 9 10 10 10
8 9 9 9 10 10 11 11 10 10 10 10 10 10 10 10 10 10 10 10 11 10 10 10 10 10 10 10 9 9 9 9 9 9 9 9 9 9 8 8 8 8 8 8 8 8 8 8 8 8 8 8 8 7 7 7 7 7 7 7 7 7 8 8 8 9 9 9 9
9 9 9 9 10 10 10 10 10 9 9 9 9 9 9 9 9 9 10 10 10 9 9 9 9 9 9 8 8 8 8 8 8 8 8 8 8 8 8 8 8 8 7 7 7 7 7 7 7 7 7 7 7 7 7 7 7 6 6 6 6 7 7 7 8 8 9 9 9
9 9 9 9 9 10 9 9 9 8 8 8 8 8 8 8 8 8 9 9 8 8 8 8 8 8 7 7 7 7 7 7 7 7 7 7 7 7 7 7 7 7 7 7 7 7 7 7 7 7 7 7 7 7 6 6 6 6 6 6 6 6 6 7 7 8 8 8 9
8 8 8 8 9 9 8 8 7 7 7 7 7 7 7 7 7 7 7 7 7 7 7 7 7 7 7 7 7 7 7 7 7 7 7 7 7 7 7 7 7 7 7 7 7 7 6 6 6 6 6 6 6 6 6 6 6 6 6 6 6 6 6 6 7 7 8 8 8
7 7 7 7 7 7 7 6 6 6 6 6 6 6 6 6 6 6 7 7 6 7 7 7 7 7 7 7 7 7 7 7 7 7 7 7 7 7 7 7 7 7 7 7 7 7 6 6 6 6 6 6 6 6 6 6 6 6 6 6 6 6 6 6 6 7 7 7 8
6 6 6 6 6 6 6 5 5 5 5 5 5 5 6 6 6 6 6 6 6 6 6 6 7 7 7 7 7 7 7 7 7 7 7 7 7 7 7 7 7 6 6 6 6 6 6 6 6 6 6 6 6 6 6 6 6 6 6 6 6 6 6 6 6 6 6 7 7
5 5 5 5 5 5 5 5 5 5 5 5 5 5 5 6 6 6 6 6 6 6 6 6 6 7 7 7 7 7 7 7 7 6 6 6 6 6 6 6 6 6 6 6 6 6 6 6 6 6 6 6 6 5 5 5 5 5 5 5 5 5 5 5 6 6 6 6 6
5 5 5 5 5 5 5 5 5 5 5 5 5 5 5 6 6 6 6 6 6 6 6 6 6 6 6 6 6 6 6 6 6 6 6 6 6 6 6 6 6 6 6 6 6 6 6 6 6 6 5 5 5 5 5 5 5 5 5 5 5 5 5 5 5 5 5 6 6
4 5 5 5 5 5 5 5 5 5 5 5 5 5 5 5 6 6 6 6 6 6 6 6 6 6 6 6 6 6 6 6 6 6 6 6 6 6 6 6 6 6 6 6 6 6 6 6 5 5 5 5 4 4 4 4 4 4 4 4 4 4 4 4 4 5 5 5 5
4 4 4 4 4 4 5 5 5 5 5 5 5 5 5 5 6 6 6 6 6 6 6 7 7 7 7 7 7 7 6 6 6 6 6 6 6 6 6 6 6 6 6 6 6 6 6 5 5 4 4 4 4 4 3 3 3 3 3 3 3 3 4 4 4 4 4 4 5
3 3 4 4 4 4 4 4 5 5 5 5 5 5 6 6 6 6 6 6 6 7 7 7 7 7 7 7 7 7 7 7 6 6 6 6 6 6 6 6 6 6 6 6 6 5 5 4 4 4 3 3 3 3 3 3 3 3 3 3 3 3 3 3 3 3 3 4 4
3 3 4 4 4 4 4 5 5 5 5 5 6 6 6 6 6 6 6 6 7 7 7 7 6 6 6 6 6 6 6 6 7 6 6 6 6 6 6 6 6 6 5 5 5 4 4 3 3 3 3 3 2 2 2 2 2 2 2 2 3 3 3 3 3 3 3 3 3
3 3 4 4 4 5 5 5 5 6 6 6 6 6 6 6 6 6 6 6 6 6 6 6 6 6 6 6 6 6 6 6 6 6 6 6 6 5 5 5 5 5 5 4 4 3 3 2 2 2 2 2 2 2 2 2 2 2 2 2 2 2 2 2 2 2 3 3 3
4 4 4 5 5 5 6 6 6 6 6 6 6 6 6 6 6 6 6 6 6 6 6 6 6 5 5 5 5 5 5 5 5 5 5 5 5 5 5 5 5 4 4 4 4 3 2 2 2 2 2 2 2 2 2 2 2 2 2 2 2 2 2 2 2 2 2 2 2
4 5 5 5 5 6 6 5 5 5 5 5 5 5 5 5 5 5 5 5 5 5 5 5 5 5 5 4 4 4 4 4 4 4 4 4 4 4 4 4 4 4 4 3 3 3 3 2 2 2 2 2 2 2 2 2 2 2 2 2 2 2 2 2 2 2 2 2 2
5 5 5 5 5 5 5 5 5 5 5 4 4 4 4 4 4 4 4 4 4 4 4 4 4 4 3 3 3 3 3 3 3 3 2 2 3 3 3 3 3 2 2 2 2 2 2 2 2 2 2 2 2 2 2 2 2 2 2 2 2 2 2 2 2 2 2 2 2
4 4 4 4 4 4 4 4 4 4 4 3 3 3 3 3 3 4 4 3 3 3 3 3 3 3 2 2 2 2 2 2 2 2 2 2 2 2 2 2 2 2 2 2 1 1 1 1 2 2 2 2 2 2 2 2 2 2 2 2 2 2 2 1 1 1 1 1 1
3 3 3 3 3 3 3 3 3 3 3 3 2 3 3 3 3 3 3 3 3 2 2 2 2 2 2 2 2 2 2 1 1 1 1 1 1 1 1 1 1 1 1 1 1 1 1 1 1 1 1 1 1 1 1 1 1 1 1 1 1 1 1 1 1 1 1 1 1
3 3 3 2 2 2 2 2 2 2 2 2 2 2 2 2 2 2 2 2 2 2 2 1 1 1 1 1 1 1 1 1 1 1 1 1 1 1 1 1 1 1 1 1 0 0 1 1 1 1 1 1 1 1 1 1 1 1 1 1 1 1 1 1 1 1 1 1 1
2 2 2 2 2 2 2 2 2 2 2 2 2 2 2 2 2 2 2 2 2 1 1 1 1 1 1 1 1 1 1 1 1 0 0 0 0 0 0 0 -0 -0 -0 -0 -0 0 0 0 1 1 1 1 1 1 1 1 1 1 1 1 1 1 1 1 1 1 1 1 1
2 2 2 2 2 1 1 1 1 1 2 2 2 2 2 2 2 2 1 1 1 1 1 1 1 1 1 1 1 1 0 0 -0 -0 -1 -1 -1 -1 -1 -1 -1 -1 -1 -1 -0 -0 -0 0 0 0 0 1 1 1 1 0 0 0 0 0 0 0 0 0 0 1 1 1 1
2 2 1 1 1 1 1 1 1 1 2 2 2 2 2 2 2 1 1 1 1 1 1 0 0 0 0 -0 -0 -0 -0 -1 -1 -1 -1 -1 -1 -1 -1 -1 -1 -1 -1 -1 -1 -1 -0 -0 -0 0 0 0 0 0 0 0 -0 -0 -0 -0 -0 -0 0 0 0 0 0 1 1
1 1 1 1 1 1 1 1 1 1 1 1 1 1 1 1 1 1 1 1 0 -0 -0 -0 -1 -1 -1 -1 -1 -1 -1 -1 -2 -2 -2 -2 -2 -2 -2 -2 -2 -2 -1 -1 -1 -1 -1 -0 -0 -0 0 0 0 0 -0 -0 -0 -0 -0 -0 -0 0 0 0 0 0 0 1 1
1 1 1 1 1 1 1 1 1 1 1 1 1 1 0 0 0 -0 -0 -0 -1 -1 -1 -1 -1 -2 -2 -2 -2 -2 -2 -2 -2 -2 -2 -2 -2 -2 -2 -2 -2 -2 -2 -2 -1 -1 -1 -1 -0 -0 -0 0 -0 -0 -0 -0 -0 -0 -0 -0 0 0 0 0 0 0 1 1 1
1 1 1 1 1 1 1 1 1 1 1 0 0 0 -0 -0 -1 -1 -1 -1 -1 -2 -2 -2 -2 -2 -2 -2 -2 -2 -2 -2 -2 -2 -2 -2 -2 -2 -2 -2 -2 -2 -2 -2 -1 -1 -1 -1 -1 -0 -0 -0 -0 -0 -0 -0 -0 -0 -0 -0 0 0 0 0 0 0 0 1 1
1 1 1 1 1 1 1 0 0 0 0 -0 -0 -1 -1 -1 -1 -1 -2 -2 -2 -2 -2 -2 -2 -2 -2 -2 -2 -2 -2 -2 -2 -2 -2 -2 -2 -2 -2 -2 -2 -2 -2 -2 -1 -1 -1 -1 -1 -1 -0 -0 -0 -0 -0 -0 -0 -0 -0 -0 -0 -0 0 0 0 0 0 0 1
1 1 1 1 1 0 0 0 -0 -0 -0 -1 -1 -1 -1 -2 -2 -2 -2 -2 -2 -2 -2 -2 -2 -3 -3 -3 -3 -2 -2 -2 -2 -2 -2 -2 -2 -2 -2 -2 -2 -2 -2 -2 -2 -2 -1 -1 -1 -1 -0 -0 -0 -0 -0 -0 -0 -0 -0 -0 -0 -0 -0 -0 0 0 0 0 0
1 1 1 0 0 0 -0 -0 -0 -1 -1 -1 -1 -1 -2 -2 -2 -2 -2 -2 -2 -3 -3 -3 -3 -3 -3 -3 -3 -2 -2 -2 -2 -2 -2 -2 -2 -2 -2 -2 -2 -2 -2 -2 -2 -2 -2 -1 -1 -1 -1 -0 -0 -0 -0 -0 -0 -0 -0 -0 -0 -0 -0 -0 -0 -0 0 0 0
1 1 0 0 0 -0 -0 -0 -1 -1 -1 -1 -2 -2 -2 -2 -2 -2 -2 -3 -3 -3 -3 -3 -3 -3 -3 -3 -3 -2 -2 -2 -2 -2 -2 -2 -2 -3 -3 -2 -2 -2 -2 -2 -2 -2 -2 -1 -1 -1 -1 -0 -0 -0 -0 -0 -1 -1 -1 -1 -0 -0 -0 -0 -0 -0 -0 0 0
0 0 0 0 -0 -0 -1 -1 -1 -1 -1 -1 -2 -2 -2 -2 -2 -2 -2 -2 -2 -2 -2 -2 -2 -2 -2 -2 -2 -2 -2 -2 -2 -2 -2 -2 -2 -3 -2 -2 -2 -2 -2 -2 -2 -2 -2 -1 -1 -1 -1 -0 -0 -0 -1 -1 -1 -1 -1 -1 -1 -1 -1 -1 -1 -0 -0 -0 -0
Height
743 745 746 748 751 753 755 757 758 760 761 762 762 763 764 765 766 767 768 769 770 771 772 773 774 774 774 775 775 776 777 777 778 778 779 779 779 779 779 779 779 779 780 780 780 780 780 780 780 780 780 780 780 780 780 781 781 781 781 782 782 781 781 781 780 779 779 778 777
744 746 748 750 752 754 756 758 759 760 761 761 762 763 764 766 766 767 768 769 769 770 771 771 772 772 773 774 774 775 776 776 777 777 778 778 778 778 778 778 778 779 779 779 779 779 779 779 780 780 780 780 780 781 781 781 781 781 781 781 781 781 780 780 779 778 777 776 775
745 746 748 751 753 754 755 757 758 758 759 760 762 763 764 766 766 767 767 768 768 769 770 771 771 772 773 773 774 775 775 776 776 777 777 778 778 778 778 778 778 778 778 778 778 778 779 779 779 780 780 780 781 781 781 781 781 781 780 780 779 779 779 778 777 776 776 775 773
746 748 749 751 753 755 756 758 759 759 760 762 763 765 766 766 767 767 768 768 769 770 771 771 772 773 773 774 774 775 775 776 777 777 778 778 778 778 778 778 778 777 777 777 777 777 778 778 779 779 779 780 780 780 780 780 780 779 779 778 778 778 777 776 775 774 773 772 771
748 749 751 753 754 756 757 759 760 761 762 764 765 766 767 767 768 768 768 769 770 771 772 772 773 773 774 774 775 775 776 776 777 777 777 778 778 778 778 777 777 777 777 777 777 777 777 777 778 778 778 779 779 779 779 779 778 778 777 777 776 776 775 774 774 773 772 771 770
750 751 753 754 756 757 759 760 762 763 765 766 767 767 768 768 769 769 769 770 771 772 772 773 773 774 774 775 775 776 776 777 777 777 777 778 778 777 777 777 777 777 777 777 777 776 776 776 776 777 777 777 777 777 777 777 777 776 776 775 775 774 774 773 772 771 770 769 768
751 753 754 756 758 759 760 762 763 765 766 767 768 768 769 769 769 770 770 771 771 772 773 773 774 774 775 775 776 776 776 777 777 777 777 777 777 777 777 777 777 776 776 776 776 776 776 776 776 776 775 776 776 776 776 776 775 775 774 773 773 772 772 771 770 770 769 768 767
753 755 757 758 759 761 762 763 765 766 767 767 768 769 769 770 770 770 771 771 772 773 773 774 774 775 775 775 776 776 776 777 777 777 777 777 777 776 776 776 776 776 776 775 775 775 775 775 775 774 774 774 774 774 774 774 774 773 773 772 771 771 770 769 769 768 768 767 766
756 757 759 760 761 762 763 764 765 766 767 768 768 769 770 770 770 771 771 772 772 773 774 774 774 775 775 775 776 776 776 776 776 776 776 776 776 776 776 776 775 775 775 775 774 774 774 774 773 773 773 773 773 773 773 773 772 772 771 770 770 769 769 768 767 767 766 766 765
758 759 760 761 762 763 763 764 765 766 767 768 769 770 770 771 771 771 772 772 773 773 774 774 775 775 775 775 775 776 776 776 776 776 776 776 776 776 775 775 775 774 774 774 773 773 773 773 773 772 772 772 772 771 771 771 770 770 769 769 768 768 767 767 766 766 765 765 764
758 760 761 761 763 763 764 765 766 767 768 768 769 770 770 771 771 772 772 773 773 773 774 774 775 775 775 775 775 776 776 776 776 776 776 776 775 775 775 774 774 774 773 773 773 772 772 772 772 771 771 771 771 770 770 770 769 768 768 767 767 766 766 765 765 765 764 764 763
759 760 761 762 763 764 764 765 766 767 768 769 770 770 771 771 772 772 773 773 773 774 774 774 775 775 775 775 775 775 776 776 776 775 775 775 775 774 774 774 773 773 772 772 772 771 771 771 771 770 770 770 770 769 769 768 768 767 766 766 766 765 765 764 764 763 763 763 762
761 762 763 763 764 765 765 766 767 768 769 770 770 771 771 772 772 773 773 773 773 774 774 775 775 775 775 775 775 775 775 775 775 775 775 774 774 773 773 773 772 772 771 771 771 771 770 770 770 769 769 768 768 768 767 767 766 766 765 764 764 764 763 763 763 762 762 761 761
762 763 764 765 765 766 766 767 768 769 770 770 771 771 772 772 773 773 773 774 774 774 774 775 775 775 775 775 775 775 775 774 774 774 774 773 773 772 772 772 771 771 771 770 770 770 769 769 768 768 768 767 767 766 766 766 765 764 764 763 763 762 762 761 761 761 761 760 759
764 765 766 766 766 767 767 768 769 770 770 771 771 772 772 773 773 773 773 774 774 774 774 774 774 774 774 774 774 774 774 773 773 773 772 772 772 771 771 770 770 770 769 769 769 769 768 768 767 767 766 766 765 765 764 764 763 763 763 762 761 761 761 760 760 760 759 759 758
765 766 766 766 767 767 768 768 769 770 770 771 772 772 772 773 773 773 773 773 773 773 773 773 773 773 773 773 773 773 772 772 771 771 771 770 770 770 769 769 768 768 768 768 767 767 767 766 766 765 765 764 764 763 763 762 762 761 761 761 760 760 759 759 759 758 758 758 757
765 766 766 766 767 767 768 768 769 770 770 771 771 771 772 772 772 772 772 772 773 772 772 772 772 772 772 772 771 771 771 771 770 770 769 769 769 768 768 768 767 767 766 766 766 765 765 764 764 764 763 763 762 761 761 760 760 759 759 759 758 758 758 757 757 757 756 756 755
764 765 766 766 766 767 767 768 769 769 770 770 771 771 771 772 772 772 772 772 772 772 772 772 772 771 771 771 771 771 770 770 770 769 769 768 768 768 767 767 766 766 765 765 764 763 763 763 762 762 761 761 760 759 759 758 758 757 757 757 756 756 756 756 755 755 755 754 753
764 765 765 766 766 767 767 768 769 769 770 770 771 771 771 771 771 771 771 771 771 771 771 771 771 771 771 771 771 770 770 769 769 769 768 768 768 767 766 766 765 765 764 763 763 762 761 761 760 760 759 759 758 758 757 757 756 756 756 755 755 755 754 754 754 753 753 752 751
764 765 766 766 767 767 768 768 769 770 770 771 771 771 771 771 771 771 771 771 771 771 771 771 771 771 770 770 770 769 769 769 768 768 767 767 766 766 765 764 764 763 763 762 762 761 760 760 759 758 758 757 757 756 756 756 755 755 754 754 754 753 753 753 752 751 751 750 750
766 766 767 767 768 768 769 769 770 770 771 771 771 771 771 771 771 771 771 771 771 771 771 770 770 769 769 769 769 768 768 768 767 767 766 766 765 765 764 764 763 763 762 761 761 760 759 759 758 758 757 757 756 756 755 755 754 754 753 753 753 752 752 751 751 750 749 749 748
767 768 768 769 769 770 770 770 771 771 771 771 771 771 771 771 771 771 771 771 771 770 770 769 769 769 768 768 768 768 767 767 767 766 766 765 765 765 764 763 763 762 761 761 760 760 759 758 758 758 757 757 756 756 755 755 754 753 753 752 751 751 750 749 749 748 748 747 746
769 769 770 770 770 771 771 771 771 771 771 771 771 771 771 771 771 771 771 771 770 770 770 769 769 769 769 768 768 768 767 767 767 766 766 766 765 765 764 763 763 762 761 761 760 760 759 758 758 757 757 756 756 755 755 754 753 753 752 751 750 749 748 748 747 746 746 745 745
770 770 771 771 771 771 771 771 771 771 771 771 771 771 771 771 771 771 771 770 770 770 770 770 769 769 769 769 768 768 768 767 767 766 766 766 765 765 764 763 763 762 761 761 760 760 759 759 758 757 757 756 756 755 754 753 753 752 751 750 748 747 746 746 745 745 744 743 743
771 771 771 771 771 771 771 771 771 771 771 771 771 771 771 771 771 771 771 771 771 770 770 770 770 770 769 769 769 768 768 768 767 766 766 766 765 765 764 763 763 762 761 761 760 760 760 759 759 758 757 756 755 754 753 752 752 751 750 749 748 746 745 744 743 743 742 742 741
771 771 771 771 771 771 771 771 771 772 772 772 772 772 772 772 772 772 771 771 771 771 771 771 770 770 770 769 769 769 768 768 767 767 766 765 765 764 763 763 762 762 761 760 760 759 759 758 758 757 756 755 754 753 752 751 750 749 749 748 747 746 745 743 742 741 740 740 739
771 771 771 772 772 772 772 772 773 773 773 773 773 773 773 773 773 772 772 772 772 771 771 771 771 770 770 769 769 768 768 767 767 766 765 765 764 763 762 762 761 761 760 759 759 758 758 757 757 756 756 755 753 752 751 750 749 748 747 746 746 745 744 743 741 740 739 738 737
772 773 773 773 773 773 773 774 774 774 774 774 774 773 773 773 773 773 772 772 772 771 771 771 770 770 769 769 768 768 767 766 766 765 764 764 763 762 761 761 760 760 759 758 758 757 757 756 756 755 755 754 753 752 751 749 748 747 746 746 744 744 743 742 741 739 738 737 736
774 774 774 774 774 774 775 774 774 774 774 774 774 774 774 773 773 773 772 772 771 771 770 770 769 769 768 768 767 766 766 765 765 764 763 763 762 761 761 760 759 758 758 757 757 756 756 755 755 754 753 753 752 751 750 748 747 746 745 744 743 743 742 741 740 738 737 736 735
775 775 775 775 775 775 775 775 775 775 775 775 774 774 773 773 772 772 771 771 770 770 769 769 768 768 767 767 766 766 765 764 764 763 763 762 761 761 760 759 758 758 757 757 756 756 755 754 754 753 752 751 751 750 748 747 746 745 744 743 742 741 741 739 738 737 736 735 734
776 776 776 776 776 776 776 776 775 775 775 774 774 773 773 772 772 771 771 770 770 769 769 768 768 767 767 766 766 765 764 764 763 763 762 762 761 760 759 758 758 757 756 756 755 755 754 753 753 752 751 750 749 748 747 746 745 744 743 742 741 740 739 738 737 736 735 734 733
777 777 777 776 776 776 776 776 775 775 774 774 773 773 772 772 771 771 770 770 769 769 768 768 767 767 766 766 765 765 764 763 763 762 762 761 761 759 758 758 757 756 755 755 754 754 753 752 751 750 749 749 748 747 746 745 743 742 741 740 739 738 738 737 736 734 733 733 732
777 777 777 776 776 776 776 775 775 774 774 773 773 772 772 771 771 771 770 770 769 769 768 768 767 767 766 765 765 764 763 763 762 762 761 761 760 759 758 757 756 755 754 754 753 752 752 751 750 749 748 747 746 745 744 743 742 741 739 738 737 737 736 735 734 733 732 731 730
777 777 777 776 776 776 776 775 775 774 774 773 773 773 772 772 771 771 770 770 769 769 768 768 767 767 766 765 765 764 763 762 761 761 760 759 758 758 756 755 754 754 753 753 752 751 750 749 748 747 746 745 744 743 742 741 740 739 738 736 735 735 734 733 732 731 730 729 728
777 777 777 777 776 776 776 775 775 775 774 774 773 773 773 772 772 771 771 770 769 769 768 768 767 766 766 765 764 763 762 761 760 760 759 758 757 756 755 754 753 752 752 751 750 750 749 748 747 746 745 744 743 741 740 739 738 737 736 735 733 733 732 731 730 729 728 727 726
778 778 777 777 777 777 776 776 776 775 775 774 774 773 773 772 772 771 771 770 769 768 768 767 766 765 764 764 763 762 761 760 759 758 757 757 756 754 753 752 751 751 750 750 749 748 747 746 745 744 743 742 741 740 739 738 736 735 734 733 732 731 730 729 728 727 726 725 724
779 778 778 778 778 777 777 777 776 776 775 775 774 773 773 772 771 771 770 769 768 767 767 766 765 764 763 762 761 761 760 759 758 757 756 755 754 753 752 750 750 749 748 748 747 747 746 745 744 743 742 741 740 738 737 736 735 733 732 731 730 729 728 727 726 725 724 723 722
779 779 779 778 778 778 777 777 776 776 775 775 774 773 772 772 771 770 769 769 768 767 766 765 764 763 762 761 760 759 758 758 757 756 755 754 753 752 751 749 748 747 747 746 746 745 744 743 743 742 741 740 738 737 736 734 733 732 731 730 728 727 726 726 724 723 722 721 720
780 779 779 779 778 778 777 777 776 776 775 774 773 773 772 771 770 769 768 768 767 766 765 763 762 762 761 760 758 757 757 756 755 754 753 752 751 751 750 748 747 746 745 745 744 744 743 742 741 741 740 739 737 736 734 733 732 730 729 728 727 725 724 723 723 721 720 718 718
780 780 779 779 778 778 777 777 776 775 774 773 773 772 771 770 769 768 767 767 766 765 763 762 761 760 759 758 757 756 755 754 753 753 752 751 750 749 748 747 746 744 744 743 743 742 741 741 740 739 738 737 736 735 733 732 730 729 727 726 725 723 722 721 720 719 718 716 715
780 780 779 778 778 777 777 776 775 774 773 773 772 771 770 769 768 767 766 765 764 763 762 761 760 759 758 757 756 755 753 752 751 751 750 749 748 748 747 745 744 743 742 741 741 740 740 739 738 738 737 736 735 733 732 731 729 727 726 724 723 722 720 718 717 716 716 714 713
Wind_Speed
14 15 16 17 17 18 18 18 16 14 12 10 11 11 11 10 10 9 9 9 9 9 8 7 7 7 6 6 7 6 6 5 5 5 5 4 4 3 3 3 3 3 3 3 3 4 4 4 5 6 6 7 7 7 8 8 10 11 13 13 14 15 16 18 19 19 19 19 18
14 14 14 13 13 13 12 10 8 8 9 10 10 10 10 10 11 11 11 10 10 9 9 8 6 6 5 5 5 5 4 4 4 4 4 4 5 5 5 6 6 6 5 5 5 5 5 5 6 8 9 9 9 10 10 10 10 11 12 12 13 13 15 17 18 18 18 18 18
18 18 17 16 16 15 15 15 15 15 15 14 13 13 13 14 15 16 16 15 14 13 12 11 10 9 8 7 6 5 4 4 3 3 3 4 5 5 6 6 6 7 7 7 6 6 6 6 7 9 11 12 12 13 13 12 12 12 12 12 12 13 13 14 15 15 16 17 17
23 23 22 22 22 22 23 22 22 21 19 18 17 16 17 17 18 18 18 17 16 15 14 13 12 11 9 8 7 6 5 4 4 4 4 4 5 5 5 5 5 6 7 7 7 7 7 7 8 9 11 11 12 13 13 12 12 12 13 13 12 13 13 13 13 14 14 15 16
29 29 28 27 27 27 26 25 24 23 22 21 21 20 20 20 20 19 19 18 17 16 14 12 11 10 8 6 6 5 5 4 4 4 4 4 3 3 3 4 4 5 5 6 7 8 8 8 9 10 11 12 13 13 13 12 12 12 13 13 13 13 13 14 14 14 14 14 15
31 31 30 29 28 28 27 26 25 24 24 23 22 22 21 20 20 19 18 18 16 14 12 11 9 8 7 6 5 5 4 4 3 3 3 3 3 3 3 3 3 4 4 5 6 7 8 9 9 10 11 11 12 13 12 12 11 12 12 13 13 13 14 14 14 14 14 14 14
31 30 30 29 28 28 27 26 26 25 24 23 23 22 21 20 19 18 17 16 14 13 11 10 9 8 6 6 5 5 4 4 3 3 2 2 2 2 2 3 3 3 4 4 4 5 6 7 8 10 10 10 10 11 11 12 12 13 13 14 14 14 14 14 15 15 15 15 15
31 30 30 29 28 28 27 26 25 25 24 23 23 22 20 19 18 17 16 14 13 12 11 10 8 7 6 5 5 4 4 3 3 2 2 2 1 2 2 2 3 3 4 4 4 5 5 6 6 7 8 8 8 9 10 12 13 14 15 15 16 15 15 15 15 15 15 15 15
31 30 29 29 28 27 26 25 24 23 23 22 21 20 18 17 16 15 14 14 12 11 10 9 8 6 5 5 4 4 3 2 2 1 1 1 1 2 2 3 3 3 3 4 4 4 5 5 5 6 7 7 8 9 10 11 12 13 14 15 16 16 16 16 16 16 16 16 16
30 29 29 28 27 26 25 24 23 22 21 20 19 18 16 15 14 14 13 12 10 9 8 7 6 5 4 4 3 3 2 1 1 0 1 1 2 2 2 3 3 3 3 3 4 4 4 5 5 5 5 6 7 8 9 9 10 11 12 14 15 15 16 16 16 16 16 16 16
29 28 27 26 25 24 23 22 21 20 19 18 17 16 15 14 13 12 11 9 8 7 7 6 5 4 3 3 3 2 2 1 1 1 2 2 2 2 2 2 3 3 3 4 4 4 5 5 5 6 6 6 6 7 8 8 8 9 10 11 13 14 15 16 16 16 16 16 16
28 26 25 24 23 22 21 21 20 19 18 17 16 15 14 13 12 10 9 7 7 7 7 5 5 4 4 4 4 4 4 4 3 3 3 4 4 4 4 4 4 4 5 5 5 6 6 7 7 8 8 8 8 8 9 9 9 10 10 10 11 12 14 15 15 15 16 17 17
26 25 23 22 21 21 20 20 19 18 17 16 15 14 13 12 11 9 8 8 8 8 7 7 6 6 6 6 6 6 6 5 5 5 5 6 6 6 6 6 6 7 7 7 8 8 8 9 9 9 10 10 10 10 10 11 11 12 12 12 12 12 12 13 14 14 15 16 18
24 23 22 21 20 20 20 20 19 18 17 16 15 14 13 12 11 10 9 9 9 9 9 9 8 8 8 8 7 7 7 7 7 7 7 7 7 8 8 8 8 9 9 9 9 10 10 10 10 11 11 11 11 12 12 12 13 13 13 13 13 13 13 13 13 14 15 16 17
24 23 22 21 20 20 20 20 19 18 17 16 15 14 13 13 12 11 11 11 11 11 10 10 10 10 9 9 9 8 8 8 8 8 9 9 9 10 10 10 10 11 11 11 11 11 11 11 12 12 12 12 12 13 13 13 14 14 14 15 15 15 15 14 14 14 15 16 17
24 23 22 21 21 21 21 20 20 19 18 17 16 15 15 14 13 13 13 13 13 12 12 12 11 11 10 10 10 10 10 10 10 11 11 12 12 12 12 12 13 13 13 13 13 13 13 13 13 13 13 13 14 14 14 15 15 15 16 16 16 16 16 15 15 15 15 16 17
25 24 23 23 22 22 22 21 20 20 19 18 17 16 16 15 15 14 14 14 13 13 13 13 12 12 12 12 12 12 12 12 13 13 13 14 14 14 14 14 14 15 15 15 15 15 15 15 14 14 14 15 15 16 16 16 17 17 17 17 17 17 17 17 16 16 16 17 17
25 24 24 24 23 23 22 22 21 20 19 18 18 17 16 16 15 15 15 14 14 14 14 13 13 13 13 13 13 13 13 14 14 14 14 15 15 15 15 15 15 16 16 16 16 17 17 17 17 16 16 16 17 17 18 18 18 19 19 19 19 19 19 19 19 18 18 18 18
25 25 24 24 23 23 22 21 21 20 19 18 18 17 16 16 16 15 15 15 14 14 14 14 14 14 14 14 14 14 14 15 15 15 15 15 15 15 16 16 16 16 17 17 17 17 17 18 18 18 18 18 19 19 19 19 20 20 20 20 21 21 21 21 21 20 20 20 20
25 25 24 23 23 22 22 21 20 20 19 18 17 17 17 16 16 16 16 15 15 14 14 14 14 14 14 14 14 15 15 15 15 15 15 15 16 16 17 17 17 17 17 17 18 18 18 18 19 19 19 20 20 20 20 21 21 21 21 21 21 21 22 22 22 22 22 22 21
25 24 23 22 22 22 21 20 19 19 18 18 17 17 17 16 16 16 16 15 14 14 14 15 15 15 15 15 15 16 16 15 16 16 16 16 17 17 17 17 18 18 18 18 18 18 19 19 19 20 20 20 21 21 21 21 21 21 22 22 22 22 22 22 22 23 23 23 23
24 23 22 21 21 20 20 19 18 18 18 17 17 17 16 16 16 16 15 14 14 14 15 15 15 16 16 16 16 16 16 16 16 16 16 17 17 17 17 17 18 18 18 19 19 19 19 20 20 20 20 20 21 21 21 21 21 21 21 22 22 22 22 22 23 23 23 23 23
22 21 21 20 19 19 18 18 17 17 17 17 17 16 16 16 15 15 14 14 15 15 15 15 15 15 16 16 16 16 16 16 16 16 16 16 17 17 17 17 18 19 19 19 19 19 20 20 20 20 20 20 20 20 20 20 20 20 21 21 22 22 23 23 23 23 23 23 23
21 20 19 19 18 18 17 17 17 17 17 17 17 16 16 15 15 15 14 15 15 15 15 15 15 15 15 15 15 16 16 16 17 16 16 16 17 17 17 17 18 19 19 19 19 19 19 19 20 20 20 20 20 20 20 20 20 20 20 20 21 22 23 23 23 23 23 23 23
19 19 18 18 17 17 16 17 17 17 17 17 16 16 15 15 15 15 14 14 14 14 14 14 14 14 14 15 15 15 15 16 16 17 17 17 17 17 17 17 18 18 19 19 19 18 18 18 18 19 19 20 20 21 21 21 21 20 20 20 21 21 22 23 23 23 23 23 23
19 18 18 17 17 16 16 17 17 16 16 16 15 15 15 15 14 14 14 14 14 14 14 14 14 14 14 14 15 15 15 15 16 16 17 17 17 17 17 18 18 18 18 19 18 18 18 18 18 18 19 20 21 22 22 22 21 21 21 22 21 21 21 22 23 23 24 24 24
18 18 17 16 16 16 16 16 16 15 15 15 15 15 15 14 14 13 13 13 13 13 13 13 14 14 15 15 15 16 16 16 16 17 17 18 18 19 19 19 19 19 19 19 19 19 18 18 18 19 19 20 21 21 21 21 22 22 21 21 21 21 21 22 23 23 24 25 25
18 17 16 16 16 16 15 15 15 15 15 15 15 14 14 14 13 13 13 13 13 13 14 14 15 15 15 16 16 17 17 17 17 18 18 19 19 20 20 21 21 21 21 20 20 19 19 19 19 19 19 20 21 21 21 21 21 20 20 20 20 21 22 22 23 23 24 24 25
17 16 16 15 15 15 15 15 15 15 15 14 14 14 14 13 13 13 13 14 14 14 15 15 16 16 17 17 17 18 18 18 18 18 19 19 20 20 21 21 21 22 21 21 20 19 19 19 19 20 20 20 20 20 20 20 20 20 20 20 20 21 22 22 23 23 24 24 25
16 15 15 15 15 15 15 15 15 15 14 14 14 14 14 14 14 15 15 15 15 15 16 16 17 17 18 18 18 19 19 18 18 18 19 19 20 20 21 21 21 22 21 20 19 19 19 19 20 20 20 20 20 20 20 19 19 20 21 21 21 22 22 23 24 24 25 25 25
15 15 15 14 14 14 15 15 15 15 15 15 15 15 16 16 16 16 16 16 16 16 16 17 17 18 18 18 18 18 19 19 18 18 18 18 19 20 20 21 21 21 21 20 19 19 19 19 20 20 20 20 20 20 20 20 20 21 21 22 22 23 23 23 24 24 24 25 25
14 14 14 14 14 15 15 15 15 15 16 16 16 17 17 17 17 16 16 16 16 17 17 17 18 18 18 18 18 18 18 18 18 18 17 18 18 19 20 20 21 21 20 19 18 19 19 19 20 20 20 20 20 20 21 21 21 21 22 22 22 23 23 23 23 24 25 25 25
14 14 14 15 15 15 15 16 16 16 17 17 17 18 18 18 17 17 16 16 16 16 17 17 17 18 18 18 18 18 18 17 17 17 17 17 18 19 19 20 20 20 19 18 18 19 19 19 20 20 20 20 20 21 21 21 21 21 21 22 22 22 23 24 24 24 25 25 25
14 14 15 15 15 16 16 16 17 17 18 18 18 18 18 18 17 17 16 16 16 16 16 16 16 16 16 16 17 17 18 17 17 17 17 17 18 19 20 20 20 20 19 18 18 19 19 19 20 20 20 21 21 21 21 21 21 21 22 22 22 23 23 23 24 24 24 24 25
15 15 15 15 16 16 16 16 17 17 18 18 18 18 18 17 16 16 15 15 15 15 15 15 15 16 16 16 16 17 17 18 18 18 18 18 18 19 20 21 21 20 20 19 19 19 19 19 20 20 20 20 20 20 21 21 21 21 21 22 22 23 23 23 23 23 24 24 24
15 15 15 15 15 15 16 16 16 17 17 17 18 17 17 16 15 15 14 14 15 15 15 16 16 16 16 17 17 17 17 18 18 18 18 18 19 20 21 21 22 21 21 20 19 19 19 19 20 20 20 20 20 20 20 20 21 21 21 22 22 22 23 23 23 23 23 24 24
14 14 14 14 14 14 15 15 15 16 16 17 17 17 16 16 15 14 14 14 15 16 16 17 16 17 17 18 18 18 18 17 18 19 19 19 19 20 21 22 22 22 22 21 20 19 19 20 20 20 20 20 21 21 20 20 20 20 21 22 22 22 23 22 23 23 23 23 24
13 13 13 13 13 13 14 14 15 15 16 16 16 16 16 15 14 14 13 14 15 16 17 17 17 17 18 18 19 19 18 18 18 18 19 20 20 20 21 22 23 23 22 22 20 20 20 20 20 20 20 20 21 21 20 20 20 21 21 21 22 23 23 22 22 23 23 23 23
12 12 12 12 12 12 13 13 14 14 15 15 16 16 15 15 14 14 14 14 15 16 17 18 18 18 19 19 19 20 19 19 18 19 19 20 20 20 21 21 23 23 23 22 21 20 20 20 20 20 20 20 20 20 20 20 21 21 21 21 22 23 23 23 22 23 24 24 24
11 11 11 11 11 12 12 12 13 14 15 15 16 16 16 15 15 15 15 15 16 17 17 18 19 19 19 19 20 20 21 20 20 20 20 21 21 21 21 22 23 23 23 23 21 20 20 20 21 21 21 20 20 20 20 21 21 22 22 22 22 23 23 23 23 23 24 25 24
10 10 10 10 10 11 12 12 13 15 15 16 16 16 16 16 16 17 17 17 17 18 18 19 20 20 20 19 20 20 21 22 22 21 22 22 23 22 22 22 23 24 24 24 23 22 21 21 21 21 21 21 21 21 20 21 21 22 23 23 23 24 24 25 24 24 24 25 25
Wind_Direction
177 181 185 188 191 192 194 196 199 200 196 190 187 190 196 199 200 201 203 204 206 207 205 202 203 199 191 182 180 183 190 199 209 217 221 224 229 235 241 246 241 238 244 253 256 259 266 275 283 286 288 292 297 299 297 293 288 282 276 272 273 276 278 279 277 275 274 273 273
134 145 156 162 167 170 171 169 157 137 122 117 122 126 127 123 117 114 114 115 118 122 124 125 131 135 139 148 161 173 184 192 203 214 221 225 227 229 232 233 233 235 240 251 262 269 274 275 277 278 279 283 286 287 287 287 286 282 277 274 272 274 277 279 280 279 279 278 278
115 121 124 125 124 120 112 104 100 99 102 104 110 113 114 111 107 104 102 103 106 109 109 108 108 106 106 111 117 123 130 140 160 182 201 212 220 228 234 237 233 228 225 228 238 253 266 271 272 272 272 274 275 275 275 277 279 278 276 276 276 276 276 277 279 283 285 286 286
110 112 113 113 111 108 104 102 101 101 102 104 107 109 109 107 103 101 99 100 100 100 102 104 104 105 106 111 117 123 131 143 161 179 192 203 212 222 231 235 234 230 228 227 224 228 240 254 262 266 268 269 269 267 269 274 279 280 278 278 281 283 283 282 281 282 284 287 290
102 104 105 106 105 103 102 101 100 100 100 102 102 101 100 98 98 98 97 96 95 95 99 105 108 112 117 125 132 140 148 156 166 175 183 190 197 207 218 223 225 226 228 230 228 225 226 232 243 254 261 263 263 263 267 275 282 284 283 281 282 285 288 291 292 290 288 286 287
94 96 98 100 101 100 100 100 100 100 100 100 99 97 96 95 96 96 96 95 95 98 101 104 110 117 124 132 140 146 150 154 160 166 170 177 186 193 200 204 208 213 218 223 229 232 231 230 234 241 249 255 259 264 271 278 283 284 283 283 283 285 288 291 294 296 295 291 289
93 94 96 98 99 100 100 100 101 101 100 99 98 96 95 96 96 97 97 99 100 101 101 102 107 114 121 128 132 135 138 143 150 158 165 171 183 194 200 204 211 216 219 223 228 234 238 240 243 245 246 250 259 269 277 282 285 285 285 284 285 286 287 287 289 291 292 292 290
95 96 97 99 100 101 101 101 101 100 98 96 95 94 95 96 96 98 99 100 98 98 100 102 104 109 116 122 124 126 128 131 138 152 169 183 197 210 218 224 230 234 237 241 243 246 249 251 258 260 259 260 265 271 275 278 282 284 284 284 285 285 284 284 285 286 287 288 288
95 96 98 99 100 100 100 100 100 99 96 94 92 92 93 93 94 94 94 92 93 97 100 100 102 109 117 123 124 125 126 127 128 145 201 234 247 251 250 250 255 258 260 262 264 266 268 271 276 278 278 277 275 270 267 269 273 276 278 280 281 281 281 281 282 283 283 284 284
94 95 96 96 97 98 99 99 98 97 95 93 92 91 91 90 89 88 86 88 94 98 99 97 101 109 116 119 118 112 109 113 109 309 290 281 283 284 286 284 286 289 290 288 288 289 292 296 300 303 302 297 293 287 282 279 276 275 276 277 278 279 279 280 281 282 281 280 280
94 94 94 94 95 97 98 97 95 94 93 91 90 89 88 86 84 83 85 90 94 92 88 89 90 92 93 90 83 75 64 49 26 3 350 342 334 330 331 329 325 326 328 327 324 324 325 325 326 328 329 327 325 323 319 312 305 295 288 283 280 280 281 281 281 281 280 279 278
93 93 93 94 95 96 96 94 91 90 88 87 86 85 83 81 80 80 83 86 83 79 76 72 67 65 62 58 52 46 42 37 31 26 22 20 17 15 11 7 2 358 356 354 351 348 346 344 341 341 342 342 342 342 341 338 334 325 316 306 299 292 288 286 285 284 283 283 282
91 91 91 91 92 93 92 89 86 84 82 81 80 78 77 76 75 75 75 75 72 69 64 60 55 53 50 48 44 41 39 37 33 29 26 24 20 17 15 11 7 5 1 359 357 354 352 349 348 346 345 344 344 344 345 345 343 340 334 327 319 310 303 298 294 292 289 288 286
88 88 87 87 87 87 85 83 80 78 76 75 74 73 72 71 69 66 66 66 64 62 59 57 55 52 49 47 44 41 38 34 29 25 22 18 14 11 8 5 1 358 356 355 353 352 351 350 348 346 343 342 341 341 342 342 343 341 338 334 328 323 319 315 309 303 297 293 291
84 83 82 82 81 80 78 77 75 74 73 72 71 69 68 67 65 63 62 61 60 58 56 55 54 51 48 44 41 37 32 26 21 17 14 11 8 5 2 358 355 352 350 349 348 348 348 347 346 343 340 338 337 337 337 338 338 338 337 334 331 328 326 323 318 310 303 299 296
79 78 77 76 75 75 74 74 73 73 72 71 69 68 66 65 63 61 59 58 56 53 52 50 47 44 41 37 32 28 23 19 14 11 9 6 4 1 358 355 353 350 347 345 344 343 343 343 342 340 338 335 334 333 333 333 333 333 332 332 330 328 325 324 321 314 307 302 299
75 74 73 73 72 72 72 73 72 72 71 70 68 66 64 63 61 58 56 53 50 48 46 44 40 37 34 30 26 22 19 16 13 11 9 6 3 0 357 355 353 350 347 345 343 342 341 340 339 337 336 334 332 331 330 329 329 328 328 327 326 324 322 321 318 315 310 306 303
72 71 71 71 71 71 72 72 72 71 70 68 66 64 62 60 58 56 53 50 46 44 42 41 38 34 32 29 26 23 20 18 16 13 11 8 4 1 358 356 354 351 349 347 345 343 342 340 338 337 335 333 332 330 329 327 326 325 324 322 321 320 318 317 315 313 311 308 305
70 69 69 69 70 70 71 71 71 70 68 67 65 63 60 58 56 53 51 49 45 42 40 39 37 34 32 30 27 25 22 19 17 14 11 8 5 1 359 356 354 352 350 349 347 345 343 341 340 338 336 334 332 330 329 327 325 323 321 320 318 317 315 314 312 311 309 307 304
69 69 69 69 70 71 71 70 69 68 67 65 63 61 58 56 53 50 48 46 43 40 37 35 33 31 29 27 25 23 21 18 15 12 9 7 4 1 359 356 354 352 351 349 348 346 344 343 341 340 338 336 334 332 330 327 325 323 320 318 316 314 313 311 310 309 307 306 304
70 70 71 71 71 71 70 69 68 67 65 63 60 58 55 53 50 47 45 43 40 37 34 32 29 27 24 22 20 19 17 15 12 9 7 4 3 1 358 356 353 351 350 349 349 347 346 345 343 341 339 336 334 332 329 327 325 322 320 317 315 313 311 310 309 308 307 305 304
72 73 73 72 71 70 69 68 66 64 62 60 57 55 52 50 47 45 42 39 36 33 31 28 26 23 21 18 16 14 12 10 9 7 5 3 1 360 357 355 353 352 351 351 350 349 347 345 343 341 338 335 332 330 327 326 323 321 318 316 314 312 310 309 308 307 305 305 304
73 73 72 70 70 68 67 65 63 61 58 55 52 50 48 46 44 41 38 35 32 29 27 25 23 21 19 16 13 10 7 5 4 3 2 1 359 357 356 354 352 351 351 351 350 350 347 344 340 338 335 332 329 327 325 323 321 319 317 315 313 311 310 309 307 306 305 304 304
71 70 69 67 66 64 62 60 57 54 51 48 46 43 41 40 38 35 33 30 28 26 24 22 20 18 16 14 12 8 5 2 0 359 359 358 357 355 354 352 351 350 350 349 350 349 345 340 336 333 331 329 326 324 323 321 319 317 315 314 312 311 310 308 307 307 306 305 304
67 66 64 62 60 58 56 53 50 47 44 42 40 37 35 33 31 29 27 26 24 22 20 18 16 14 13 11 9 7 4 1 359 356 355 354 354 353 352 351 350 348 348 348 347 344 340 335 331 328 327 325 324 322 321 319 318 316 314 313 311 310 309 309 308 307 307 306 305
62 60 58 56 54 52 49 47 44 42 39 36 34 32 30 27 25 24 22 21 20 18 16 14 12 11 9 7 5 4 2 0 358 355 353 351 351 351 350 349 348 347 346 345 343 340 336 332 329 326 324 323 322 321 319 317 316 314 313 311 310 309 309 308 308 308 307 306 305
57 55 52 50 49 47 45 42 39 36 34 31 28 26 24 22 20 19 18 17 16 14 12 11 9 8 6 4 1 360 359 357 356 354 352 350 348 348 347 346 345 344 343 342 339 336 333 331 328 325 323 321 320 319 317 315 313 312 311 310 308 307 306 306 306 306 306 306 305
52 50 48 46 45 43 40 37 34 31 28 25 22 20 18 16 15 14 14 13 11 10 8 7 6 4 2 360 358 356 355 354 353 351 349 348 346 345 344 343 341 341 340 339 336 333 330 327 325 323 321 320 318 316 314 312 310 309 307 306 305 304 303 302 302 303 303 303 303
48 46 44 42 40 37 34 31 28 25 22 19 16 14 13 12 12 11 10 9 8 7 5 2 0 359 358 356 354 353 352 351 350 349 347 345 343 342 341 339 338 337 337 336 332 328 325 323 321 320 318 317 315 313 311 309 307 305 304 302 301 300 300 299 299 299 299 299 300
43 41 39 37 34 32 29 26 22 19 16 13 11 10 9 9 10 9 7 6 5 4 1 358 356 355 354 352 351 349 348 348 347 346 344 342 340 338 336 335 334 333 333 332 328 324 322 320 318 316 315 314 313 311 308 306 304 302 301 299 298 298 297 297 297 296 296 296 297
38 35 33 31 28 26 23 20 16 14 12 9 8 7 7 8 8 7 5 3 0 358 356 354 352 351 350 349 347 346 345 344 344 343 341 338 335 333 331 330 330 330 330 329 324 321 319 317 315 314 313 313 312 309 306 304 303 301 299 298 297 296 296 295 295 295 294 295 295
32 29 26 24 22 20 17 14 12 10 8 7 6 6 6 6 5 4 2 359 356 354 352 351 349 347 346 345 344 342 341 341 340 338 336 333 330 327 326 326 326 327 327 325 321 319 317 316 314 313 313 313 311 309 306 304 302 300 298 296 295 295 294 294 294 293 293 293 293
25 23 20 18 16 14 12 10 8 7 6 5 5 4 3 2 1 360 358 355 353 351 349 347 345 343 341 340 339 338 337 336 335 333 331 329 326 324 323 323 324 325 325 322 320 319 318 316 315 314 314 314 312 310 308 306 303 301 299 297 296 295 294 294 293 292 292 291 291
19 17 15 13 11 9 8 6 5 3 3 2 2 2 0 359 357 356 354 352 349 346 344 342 340 338 337 336 334 333 332 332 331 330 329 328 326 324 323 322 324 326 326 323 321 319 319 317 316 316 316 316 314 312 310 308 305 303 300 299 297 296 296 295 294 293 292 291 290
13 11 9 8 6 4 3 2 1 0 359 359 359 358 357 356 354 352 349 346 343 340 338 337 336 335 334 334 332 331 330 329 329 329 329 329 327 326 324 324 326 329 328 325 323 321 320 319 318 318 319 318 316 314 312 310 307 305 303 301 300 299 298 297 296 295 293 292 290
8 6 4 2 1 360 359 357 357 356 356 356 355 354 352 351 350 348 345 341 337 335 334 334 334 334 334 333 332 331 330 329 329 330 331 331 330 328 326 326 329 331 331 328 325 324 322 321 320 320 321 320 318 316 314 312 309 307 305 304 303 302 301 300 298 297 295 293 292
3 1 359 357 355 354 353 353 352 352 352 352 351 349 347 345 344 343 341 338 334 332 332 334 334 335 334 334 332 331 331 332 332 332 332 333 332 330 328 328 329 331 331 330 327 325 324 323 322 322 322 321 319 318 316 313 311 309 307 306 304 303 303 301 300 298 297 295 293
358 355 352 350 349 348 347 347 347 347 347 347 346 345 344 342 340 338 338 336 333 332 332 333 333 334 335 334 333 332 333 335 335 334 333 334 334 332 329 327 327 329 331 331 328 325 324 323 322 323 323 321 320 318 316 313 311 309 307 306 305 304 303 302 300 299 298 295 294
352 349 346 344 343 342 341 342 343 343 343 343 342 342 341 339 337 336 336 335 334 333 332 332 333 334 335 335 334 334 335 336 337 337 335 334 334 332 329 325 325 327 330 330 328 325 323 322 322 323 323 322 320 318 316 314 311 309 308 307 306 306 305 303 301 299 298 296 295
345 342 340 337 336 336 336 337 339 340 341 341 341 340 339 338 336 336 336 336 335 334 334 333 333 335 336 336 335 335 336 337 338 338 337 335 334 332 329 325 325 326 329 330 327 324 322 321 322 323 324 323 322 320 317 315 313 311 310 309 309 308 306 305 303 301 299 298 297
338 335 333 331 331 331 332 334 336 339 340 340 340 340 339 338 337 336 336 336 335 335 334 334 334 335 336 337 337 337 336 336 338 338 337 335 333 332 330 328 327 328 329 330 328 325 323 322 323 324 325 325 324 322 319 317 315 313 312 312 311 310 309 308 306 304 302 301 300